Theta_e
327 341 340 343 341 342 342 339 327 324 320 316 316 315 308 309 311 316 306 306 305 306 305 304 303 301 306 313 312 314 314 314 314 313 313 313 311 314 311 313 314 314 314 315 315 314 315 315 315
332 340 340 341 339 338 335 323 320 319 318 315 312 310 308 307 308 306 305 305 305 304 303 301 300 301 303 311 311 312 312 312 312 310 312 311 309 310 309 310 310 310 311 312 311 311 312 314 314
334 339 338 337 333 333 332 321 319 318 317 318 311 309 308 306 307 306 305 304 304 303 301 301 299 298 302 310 311 311 312 311 310 308 309 307 307 305 307 307 307 309 309 309 309 310 310 310 311
335 334 330 330 330 326 324 319 318 317 316 315 311 305 306 306 306 305 304 303 303 302 301 300 298 298 301 306 308 309 307 306 304 303 303 299 298 299 302 302 306 307 307 307 308 307 308 308 308
335 333 329 331 325 324 321 322 319 316 314 312 312 306 304 304 305 304 303 303 301 301 301 300 299 299 299 299 300 300 300 298 298 298 297 297 298 300 302 302 303 305 306 306 307 306 307 307 307
332 332 326 327 325 323 321 319 316 314 312 310 309 306 305 304 304 303 302 302 301 302 300 299 299 299 300 300 300 299 298 297 297 298 303 304 303 303 303 304 300 305 306 306 306 306 306 307 307
332 327 329 323 323 322 320 319 315 313 311 310 310 305 304 304 303 302 302 302 302 301 300 299 299 299 299 300 300 299 298 298 300 301 301 302 302 303 302 302 303 305 305 305 305 306 306 306 306
326 324 325 321 324 320 317 314 313 311 308 309 308 304 304 305 303 302 302 303 303 302 300 299 299 299 300 300 300 298 299 299 298 297 297 296 296 298 301 301 303 304 304 304 305 305 305 304 303
325 324 325 322 323 317 315 313 311 309 307 306 307 307 308 305 302 302 302 303 303 302 301 299 298 299 300 300 299 299 298 298 297 297 296 297 298 298 298 298 301 302 303 302 302 302 302 301 298
321 322 321 317 317 315 315 313 312 308 306 304 305 305 305 302 303 302 303 303 303 303 300 299 298 300 300 300 299 299 299 298 297 296 297 297 297 297 296 296 299 298 299 298 298 297 298 298 298
318 319 318 315 317 317 313 312 312 308 306 305 305 305 303 302 302 302 302 302 302 301 300 298 299 300 300 300 299 299 298 297 296 297 298 298 296 296 296 297 297 297 297 296 296 296 296 297 296
316 314 316 314 314 315 314 312 312 310 308 309 308 305 303 302 302 302 302 302 302 301 300 299 299 300 299 299 298 298 297 296 297 298 298 297 296 295 297 298 297 297 296 296 296 296 296 296 296
314 313 312 312 313 312 312 310 311 307 307 306 305 304 303 302 302 301 301 301 302 301 299 299 299 300 299 298 297 296 296 297 298 298 298 297 296 296 296 297 298 297 296 295 296 297 297 297 297
314 313 312 312 311 312 312 310 310 307 306 305 305 304 303 302 302 302 301 301 302 301 300 298 299 300 299 298 296 296 296 297 298 298 297 297 297 296 297 297 297 297 296 294 295 296 297 297 297
313 311 312 311 311 310 311 309 308 307 305 305 304 303 303 303 302 302 301 301 302 301 299 299 299 300 298 298 297 297 297 298 298 298 297 297 297 297 297 297 297 297 296 295 294 294 295 296 296
313 313 314 312 311 309 309 309 308 306 305 304 304 303 303 303 303 301 301 300 300 301 299 299 300 300 298 297 297 297 298 298 298 297 297 297 297 297 297 296 296 296 296 296 295 294 294 295 296
313 313 316 313 311 308 308 310 305 306 305 304 303 303 303 303 303 302 302 301 299 300 299 299 299 300 298 297 298 297 298 298 297 297 297 297 297 297 297 296 296 296 296 295 295 295 294 295 295
313 312 312 314 310 309 308 306 306 305 305 304 304 304 304 303 304 303 302 302 300 300 299 298 300 300 298 297 298 297 298 298 297 297 297 297 297 297 297 296 296 296 296 295 295 295 295 294 294
313 313 312 312 311 310 308 308 308 306 305 305 305 305 304 304 304 303 303 302 301 299 299 298 300 300 298 297 297 297 297 297 297 297 297 296 296 296 296 296 297 296 296 296 296 295 295 295 294
313 313 312 312 311 309 307 307 307 305 305 306 306 306 305 304 304 303 303 302 302 300 300 299 299 300 298 297 297 297 297 298 298 297 297 297 296 296 296 296 296 296 296 296 296 295 295 295 295
313 312 311 310 311 309 308 308 310 307 306 306 306 307 306 305 304 304 303 303 302 300 301 299 299 300 299 297 297 298 298 298 298 298 297 297 296 296 296 296 295 295 296 296 295 295 295 295 295
312 310 310 311 310 311 309 309 310 308 306 304 306 307 307 306 305 304 304 303 303 301 301 299 299 300 299 297 297 298 297 298 298 297 297 297 296 296 296 295 295 295 295 295 296 296 296 295 295
311 310 310 311 310 310 312 309 307 308 308 305 305 307 307 307 305 304 304 304 303 302 301 300 299 299 299 297 297 297 297 298 297 297 297 296 296 296 296 295 295 294 295 295 296 296 296 296 295
309 309 310 311 310 314 313 311 308 309 309 307 307 309 308 307 306 305 304 303 303 302 301 301 299 299 299 298 297 297 297 297 297 297 296 296 296 296 295 295 295 294 294 295 296 295 296 296 295
309 310 316 321 316 317 311 310 309 310 310 308 307 310 309 308 307 305 304 303 302 302 301 301 299 299 300 298 297 297 297 297 297 297 296 296 296 295 295 295 295 294 294 294 296 296 296 296 296
310 309 313 316 316 315 311 310 311 309 308 310 313 312 310 308 307 306 305 304 303 302 301 301 300 298 299 299 297 297 298 297 297 297 296 296 295 295 295 295 295 294 294 294 295 296 296 296 296
311 310 309 310 312 313 311 313 311 309 308 308 308 309 308 308 307 306 305 304 303 302 302 301 300 299 299 300 298 297 297 297 297 297 296 296 296 295 295 295 295 294 294 294 294 295 296 296 296
307 307 311 311 313 319 314 314 313 310 307 305 305 307 308 308 307 306 305 304 303 302 302 301 300 299 299 300 299 297 297 297 297 297 296 296 296 295 295 295 295 294 294 294 294 295 295 296 296
305 306 307 307 311 311 314 311 309 311 309 305 306 308 308 307 307 306 305 304 303 302 302 301 301 300 299 300 299 297 297 297 297 297 296 296 296 295 295 295 295 294 294 293 293 294 295 296 297
307 308 307 309 313 307 308 311 309 311 311 310 311 312 311 309 308 306 305 304 303 302 302 301 301 300 299 300 300 298 297 297 297 297 296 296 296 295 295 295 294 294 293 293 293 296 296 294 296
Wind_Speed
3 7 6 2 3 3 4 2 4 3 4 13 16 19 15 12 5 7 14 8 8 10 10 10 14 14 10 9 9 9 9 10 9 9 12 12 11 13 12 13 13 12 14 15 15 16 15 15 16
3 6 3 2 4 3 2 3 10 6 13 15 14 11 13 4 11 14 12 7 7 8 8 11 11 10 9 9 9 10 9 11 12 9 11 11 12 12 12 11 12 12 14 14 15 15 16 15 15
7 1 1 2 2 2 4 3 7 10 10 4 7 15 6 6 12 10 11 5 7 9 10 10 9 8 9 10 12 10 11 11 11 11 11 11 12 12 13 13 13 14 14 14 15 14 14 15 15
6 2 2 2 4 7 6 7 17 11 13 9 17 11 8 4 8 11 9 5 5 8 9 9 8 8 8 8 9 9 10 10 11 11 11 11 11 11 12 13 14 15 15 16 15 16 15 16 17
9 3 2 4 6 4 6 16 14 7 6 8 2 5 7 10 10 9 6 4 5 6 8 9 9 8 8 9 10 10 11 11 11 11 11 12 12 12 13 15 14 16 16 16 17 16 15 16 17
4 3 3 2 5 4 5 19 21 17 16 9 13 9 6 11 9 8 4 2 4 5 5 7 8 9 8 8 10 10 10 10 11 12 14 14 13 13 15 15 17 17 17 16 16 16 18 17 16
2 2 3 5 8 4 2 8 5 10 7 7 8 5 13 13 8 8 3 3 6 6 6 7 7 8 8 9 10 9 9 9 10 10 12 12 11 11 13 14 16 17 17 17 16 16 16 16 15
4 3 6 7 4 3 2 5 7 10 5 5 4 7 9 18 13 5 3 5 8 7 7 7 7 8 7 9 11 9 9 9 10 11 12 12 12 12 13 14 14 14 15 15 15 15 15 13 14
3 4 3 5 3 4 7 4 7 7 13 8 4 12 10 17 10 9 7 3 5 9 7 7 6 7 6 7 8 11 10 12 11 13 13 13 13 13 14 14 14 14 14 13 13 13 13 15 12
5 4 1 4 3 5 9 6 11 6 14 12 18 20 18 12 10 11 10 6 6 8 7 7 6 6 7 6 9 10 11 11 12 12 14 15 15 13 14 14 13 16 16 17 16 14 12 13 13
4 2 4 4 7 11 6 9 5 12 4 12 17 19 16 13 10 9 6 4 4 5 6 4 4 5 6 6 8 7 8 9 9 12 14 15 15 14 13 13 16 19 18 18 17 15 14 15 15
5 8 5 2 4 5 5 8 5 5 0 11 11 16 17 14 13 10 7 4 3 5 7 4 3 5 5 6 7 7 7 8 9 12 14 17 16 14 12 14 18 21 22 18 15 14 15 17 16
4 3 5 4 4 7 8 6 5 7 7 16 14 15 16 16 14 10 7 4 7 6 7 5 4 5 5 6 7 5 6 7 9 11 14 16 15 14 13 13 18 21 23 23 17 16 17 19 21
6 8 8 5 3 3 1 3 4 8 18 19 15 15 16 17 11 6 4 1 6 8 6 5 4 4 5 6 6 6 8 7 9 11 14 15 15 15 14 13 16 20 24 24 20 20 21 21 23
13 4 2 7 6 2 1 1 5 18 20 20 17 16 16 13 11 6 9 8 9 9 8 3 3 3 5 6 6 7 7 7 8 11 13 13 15 16 14 13 15 18 22 23 23 20 18 20 20
3 4 1 3 9 3 4 7 5 24 23 20 18 17 18 17 13 12 13 10 11 11 7 5 2 3 5 5 4 6 6 8 8 10 11 13 14 14 14 14 13 16 20 22 24 28 20 19 20
2 3 4 2 13 4 4 5 8 22 23 22 21 22 22 19 15 16 16 12 10 10 10 7 5 4 4 2 3 4 5 7 8 9 10 12 13 14 13 14 13 15 18 20 24 29 21 20 22
2 3 3 4 6 6 4 8 9 25 26 26 25 24 26 24 20 19 18 15 12 10 10 9 6 6 4 2 1 2 3 6 7 8 9 11 12 13 13 14 14 15 17 19 22 26 25 20 24
2 2 3 1 3 3 7 8 9 28 27 25 26 27 28 28 19 21 20 17 13 11 10 9 9 7 6 5 4 5 3 5 6 6 10 11 11 12 13 15 15 15 15 16 19 24 25 26 30
1 3 4 1 4 4 6 10 10 22 29 34 30 29 29 27 23 25 24 20 16 12 11 11 9 9 7 6 4 3 3 2 4 7 10 10 11 12 13 15 16 15 13 13 15 18 23 25 26
2 1 1 2 2 3 6 8 3 8 13 29 29 27 28 28 28 29 28 24 18 16 14 11 11 10 8 6 5 5 4 3 5 8 8 9 10 12 13 14 16 16 15 15 15 15 17 22 23
2 1 2 3 4 2 3 5 5 5 8 15 30 29 28 29 32 31 30 27 21 16 15 15 13 11 11 7 7 6 5 5 5 7 7 9 10 11 12 14 17 17 18 19 18 16 17 20 21
3 2 1 1 0 3 2 3 7 3 7 10 26 33 31 29 32 33 31 27 21 18 18 16 16 15 12 10 9 8 7 6 7 8 8 8 9 10 12 14 16 17 15 15 16 18 16 18 21
1 3 2 3 2 2 4 5 6 5 8 5 15 34 33 30 29 31 28 25 24 21 21 19 19 16 14 11 10 9 8 8 7 8 8 8 9 10 11 13 15 16 16 13 15 18 15 16 18
3 4 3 2 3 5 1 2 9 7 6 8 16 30 32 30 31 31 31 29 28 27 24 21 20 17 15 12 12 10 9 9 8 8 9 8 10 10 11 13 14 15 15 15 13 15 15 14 16
2 4 4 3 2 4 4 6 5 1 3 3 10 20 26 29 32 34 34 32 31 28 25 23 21 20 17 15 13 12 10 10 9 9 9 9 11 11 11 13 13 14 14 14 13 13 17 11 15
1 1 3 1 2 2 4 6 5 1 2 3 9 19 26 30 32 34 35 34 32 30 27 24 22 21 19 17 15 13 12 11 11 10 10 10 10 11 11 13 13 13 14 14 13 12 15 11 14
2 2 1 2 1 4 5 6 5 5 10 7 10 19 25 28 30 32 34 34 32 30 27 24 23 22 20 18 17 15 13 13 12 11 10 11 10 11 12 13 13 13 14 15 13 11 14 13 12
1 2 2 2 4 4 2 6 5 5 7 10 19 25 25 27 31 31 33 33 32 30 28 26 25 23 22 21 18 16 15 14 13 12 12 12 11 11 12 13 13 13 14 15 14 10 11 14 15
3 5 6 4 3 2 4 6 5 3 5 13 18 22 23 25 28 30 31 31 33 32 30 29 26 25 23 21 20 18 17 16 15 13 12 13 12 12 13 13 13 13 13 14 13 10 11 15 16
Wind_Direction
117 66 21 337 46 85 124 236 352 81 52 60 72 87 100 65 43 130 127 158 191 228 254 293 318 340 11 29 32 33 28 34 30 31 23 19 22 22 27 19 15 14 11 7 3 360 360 358 352
138 68 318 280 78 57 42 44 84 81 126 103 66 83 53 75 91 127 143 174 223 261 296 320 338 355 23 36 41 38 27 35 28 20 24 22 19 23 22 13 15 14 8 2 360 359 355 352 351
64 342 247 124 84 83 139 168 117 82 78 109 112 69 77 84 118 141 131 191 261 293 333 347 360 13 30 41 43 41 36 28 26 25 21 19 17 17 19 14 14 8 3 359 360 355 349 347 345
15 349 258 77 120 352 114 160 126 115 73 75 107 75 84 81 136 144 151 200 271 319 347 6 24 28 34 38 41 33 26 22 18 17 16 15 14 10 7 5 7 5 358 355 354 351 350 343 341
339 279 15 76 51 100 124 148 124 108 86 102 73 118 91 92 136 145 169 216 298 346 359 17 34 34 30 25 18 13 10 12 13 13 13 9 5 8 4 359 356 0 357 354 351 348 350 344 341
322 333 39 53 109 121 72 101 104 100 108 82 95 98 128 145 149 139 162 309 349 6 5 16 19 26 41 39 21 14 9 10 12 13 18 18 17 5 1 357 355 359 356 354 350 349 347 344 340
37 64 246 121 145 93 130 80 58 105 98 47 146 87 142 165 163 164 206 6 14 11 9 8 11 25 20 20 21 20 18 19 19 18 11 14 6 8 6 0 3 358 354 354 353 352 347 343 343
352 78 343 22 175 136 62 91 79 75 68 86 57 146 168 182 176 167 65 26 6 10 357 358 1 20 34 25 9 18 22 16 6 8 3 359 352 2 4 4 9 356 358 350 354 349 348 344 337
347 52 23 353 16 137 133 99 62 96 95 70 82 156 160 164 153 110 146 128 331 331 341 355 4 24 36 19 3 15 14 8 1 6 8 5 1 358 351 2 2 5 5 359 353 354 349 347 336
49 79 89 358 356 158 136 130 136 120 116 92 99 127 147 145 129 126 161 185 275 304 321 354 8 22 28 20 12 8 8 0 3 3 11 8 5 0 359 1 358 358 347 337 342 346 333 332 341
32 88 152 13 18 135 113 125 145 156 192 184 168 157 150 137 139 166 201 234 278 323 334 353 6 17 18 8 2 356 351 3 6 11 8 10 7 6 10 10 354 354 353 348 345 350 346 347 346
93 46 86 103 45 104 113 136 121 94 113 182 160 156 150 154 164 177 186 207 277 302 322 357 20 15 2 354 357 349 0 7 14 13 8 11 9 12 18 11 355 358 353 346 346 353 358 358 357
92 123 72 111 83 102 125 79 156 114 132 157 153 156 157 171 178 192 214 207 215 275 314 331 360 5 357 350 4 9 20 21 19 14 12 9 12 15 16 12 358 356 356 354 349 351 353 356 358
122 120 132 145 125 137 110 182 153 152 149 156 166 166 170 184 209 196 190 156 199 276 300 299 321 341 352 356 11 19 24 25 21 14 12 8 12 15 16 12 358 356 357 356 355 356 356 351 351
139 102 161 182 186 179 208 231 230 169 170 165 174 178 184 203 203 206 178 206 223 258 278 271 270 326 353 357 9 19 20 22 19 14 10 8 13 13 9 6 356 359 357 4 5 354 349 349 344
168 126 228 216 175 188 130 275 194 170 175 179 188 192 195 201 212 206 224 231 229 243 264 280 286 313 337 355 13 23 19 16 15 10 6 10 13 10 10 7 1 358 355 1 5 1 341 341 339
311 259 192 205 190 144 176 266 176 178 185 189 197 200 201 208 220 216 235 246 235 236 249 254 255 275 311 330 22 17 7 0 5 2 2 10 9 10 7 9 6 2 2 359 1 2 358 347 341
264 299 315 188 224 182 198 255 195 193 194 202 202 206 206 214 222 221 234 249 243 237 239 239 240 260 294 278 274 270 313 317 343 352 359 6 6 7 7 9 10 9 7 360 1 357 4 358 352
223 260 302 162 203 191 233 250 226 203 202 209 211 210 212 218 225 224 233 248 253 246 241 231 237 259 272 266 258 238 275 300 331 344 356 355 357 1 8 7 8 2 359 357 354 351 357 2 2
318 306 321 115 198 183 279 265 246 183 204 207 211 212 215 215 209 213 224 236 250 241 231 231 238 245 253 257 255 258 246 321 317 343 340 345 350 359 2 2 0 355 353 349 348 350 352 354 357
38 244 115 234 284 259 355 299 239 197 205 214 217 218 218 216 208 211 219 234 247 238 236 237 241 244 260 250 252 250 253 275 302 320 320 339 350 354 353 353 353 355 349 354 1 357 356 351 352
287 18 32 356 40 268 114 288 296 196 199 207 215 216 219 215 215 219 223 230 242 241 238 237 240 243 251 253 252 258 260 272 293 299 318 336 343 344 346 347 346 347 355 357 352 5 1 355 350
244 29 4 346 353 19 268 89 267 96 236 221 216 216 217 218 217 220 225 234 242 239 239 239 242 241 248 252 248 256 262 279 286 297 312 319 333 331 336 339 339 339 346 2 352 351 356 1 349
27 345 3 15 81 6 232 141 276 193 214 237 209 218 215 215 216 223 228 231 234 239 242 237 238 236 243 249 249 250 258 266 274 287 296 308 321 322 328 329 333 335 339 346 1 355 345 345 344
57 65 342 351 3 221 354 99 247 243 257 221 206 215 214 212 213 215 217 218 226 236 240 239 237 236 241 247 248 248 253 262 273 282 289 303 314 316 324 325 332 333 337 337 335 346 346 340 334
227 138 152 275 252 272 360 237 253 298 108 138 203 205 205 209 213 215 220 225 231 239 241 241 239 237 239 246 246 246 251 261 269 276 286 301 309 311 323 322 328 331 335 334 331 341 337 330 330
302 187 179 167 337 27 242 274 292 256 295 146 166 191 202 208 212 217 220 227 231 235 238 238 237 234 237 244 248 248 251 258 264 272 283 292 296 305 316 318 323 331 334 333 331 332 335 326 329
219 275 97 9 219 262 287 282 245 250 244 229 223 209 211 212 216 220 224 227 231 236 239 240 238 238 240 242 246 248 249 254 260 268 279 286 292 303 313 314 320 328 329 330 328 319 329 325 331
142 266 259 137 156 182 289 276 223 246 239 214 229 231 226 223 223 226 227 231 235 237 237 238 236 235 235 240 245 247 247 251 259 267 274 281 288 299 306 307 313 321 325 328 325 320 331 335 330
233 200 154 119 263 223 149 276 251 256 214 211 236 241 242 238 237 235 234 233 233 234 236 236 235 235 236 238 241 245 245 247 253 261 269 274 285 294 299 304 309 316 323 324 323 313 323 326 319